This demonstration page uses our WeatherBlox Daily Observations layout. Learn more.

Left ArrowRight Arrow

41.86663, -103.66717

Hourly Observations for December 3, 2020

Temp ( °F °C ) Dew Point ( °F °C ) Humidity (%) Winds ( mph kmh ) Pressure ( in mb ) Visibility ( mi km ) Precip ( " mm )
12:53 am 00:53 Clear 15 -9.4 7 -13.9 70 70 NNW 8 13 30.48 1032 10 16 0.00 0.00
1:53 am 01:53 Clear 16 -8.9 7 -13.9 67 67 NW 8 13 30.46 1032 10 16 0.00 0.00
2:53 am 02:53 Clear 16 -8.9 7 -13.9 67 67 NNW 7 11 30.46 1032 10 16 0.00 0.00
3:53 am 03:53 Clear 16 -8.9 7 -13.9 67 67 NW 7 11 30.44 1031 10 16 0.00 0.00
4:53 am 04:53 Clear 15 -9.4 7 -13.9 70 70 NW 12 19 30.46 1032 10 16 0.00 0.00
5:53 am 05:53 Clear 12 -11.1 5 -15 73 73 NW 8 13 30.49 1033 10 16 0.00 0.00
6:53 am 06:53 Clear 13 -10.6 6 -14.4 74 74 NW 8 13 30.49 1032 10 16 0.00 0.00
7:53 am 07:53 Sunny 18 -7.8 8 -13.3 65 65 WNW 9 15 30.46 1032 10 16 0.00 0.00
8:53 am 08:53 Sunny 22 -5.6 10 -12.2 60 60 NW 7 11 30.47 1032 10 16 0.00 0.00
9:53 am 09:53 Sunny 30 -1.1 10 -12.2 43 43 WNW 15 24 30.42 1030 10 16 0.00 0.00
10:53 am 10:53 Sunny 37 2.8 10 -12.2 33 33 WNW 12 19 30.38 1029 10 16 0.00 0.00
11:53 am 11:53 Sunny 43 6.1 8 -13.3 24 24 WNW 16 26 30.32 1027 10 16 0.00 0.00
12:53 pm 12:53 Sunny 46 7.8 6 -14.4 19 19 WNW 15 24 30.29 1026 10 16 0.00 0.00
1:53 pm 13:53 Sunny 49 9.4 5 -15 16 16 WNW 13 20 30.25 1025 10 16 0.00 0.00
2:53 pm 14:53 Sunny 50 10 5 -15 16 16 W 10 17 30.24 1024 10 16 0.00 0.00
3:53 pm 15:53 Sunny 47 8.3 6 -14.4 19 19 W 12 19 30.24 1024 10 16 0.00 0.00
4:53 pm 16:53 Clear 41 5 6 -14.4 23 23 Calm 30.27 1025 10 16 0.00 0.00
5:53 pm 17:53 Clear 33 0.6 7 -13.9 33 33 WNW 7 11 30.31 1026 9 14 0.00 0.00
6:53 pm 18:53 Clear 37 2.8 8 -13.3 30 30 WNW 16 26 30.30 1026 10 16 0.00 0.00
7:53 pm 19:53 Clear 32 0 9 -12.8 38 38 WNW 10 17 30.31 1026 10 16 0.00 0.00
8:53 pm 20:53 Clear 30 -1.1 9 -12.8 41 41 NW 8 13 30.31 1027 10 16 0.00 0.00
9:53 pm 21:53 Clear 25 -3.9 9 -12.8 50 50 NW 8 13 30.29 1026 10 16 0.00 0.00
10:53 pm 22:53 Clear 26 -3.3 10 -12.2 51 51 NW 10 17 30.27 1025 10 16 0.00 0.00
11:53 pm 23:53 Clear 26 -3.3 10 -12.2 51 51 NW 9 15 30.25 1024 10 16 0.00 0.00

Powered by AerisWeather